STARLINK-34217

Last updated on Thu Jul 03 2025 00:02:07 GMT+0000 (Coordinated Universal Time)

1 64488U 25133S 25183.58335648 -.01221440 00000+0 -59990-2 0 9994 2 64488 53.1559 210.7771 0000826 56.7451 316.6019 15.84054892 2610
UTC large
Height (km)
Speed (km/s)
/
Latitude / Longitude
Inclination (degrees)
Orbital Period (minutes)
Azimuth
Elevation
Range (km)
Doppler Factor

Next 0 passes for location: London (51.5072 / 0.1276)

Sorry there are no passes over London.